Location: Harburg
(48.7667°N, 10.6667°E)
Time: 09:07:25
(UTC+00:00)

Cosmos 2082 Rocket - Pass Details

Date: 18 September 2020
Orbit: 834 x 853 km, 71.0° (Epoch: 27 October)

Event Time Altitude Azimuth Distance (km) Brightness Sun altitude
Rises 22:23:53 0° 324° (NW) 3,392 6.1 -38.8°
Reaches altitude 10° 22:26:38 10° 313° (NW) 2,454 5.1 -38.9°
Enters shadow 22:28:14 17° 301° (WNW) 1,984 4.5 -39.0°
